Home   Weather   Sunrise   Past weeks

Flag for USA Past Weather in Sunrise, Florida, USA — Yesterday and Last 2 Weeks

Now
84 °F

Broken clouds.


Feels Like: 92 °F
Forecast: 77 / 87 °F
Wind: 5 mph from Northeast

Location: Fort Lauderdale Executive Airport

Current Time: Sep 24, 2016 at 4:57:13 PM

Latest Report: Sep 24, 2016 at 3:53 PM


Visibility: 10 mi

Pressure: 30.00 "Hg

Humidity: 74%

Dew Point: 75 °F

Location of SunriseLocation

Past Weather in Sunrise — Graph

°F

Sunrise Temperature Yesterday

Maximum temperature yesterday: 88 °F (at 1:53 PM)
Minimum temperature yesterday: 75 °F (at 4:53 AM)
Average temperature yesterday: 81 °F

High & Low Weather Summary for the Past Weeks

 TemperatureHumidityPressure
High91 °F (Sep 16, 1:53 PM)94% (Sep 13, 3:53 AM)30.09 "Hg (Sep 13, 3:53 AM)
Low75 °F (Sep 15, 5:53 AM)48% (Sep 18, 2:53 PM)29.91 "Hg (Sep 12, 6:53 PM)
Average83 °F75%30.00 "Hg
* Reported Sep 9 2:53 PM — Sep 24 2:53 PM, Sunrise, Weather by CustomWeather, © 2016

Note: Actual official high and low records may vary slightly from our data, if they occured in-between our weather recording intervals... More about our weather records

Advertising

Sunrise Weather History for the Previous 24 Hours

Scroll right to see more
 ConditionsComfort  
Time TempWeatherWind HumidityBarometerVisibility
2:53 PM
Sat, Sep 24
83 °FLight rain. Partly sunny.5 mph74%30.00 "Hg10 mi
1:53 PM83 °FThunderstorms. Broken clouds.5 mph74%30.02 "Hg10 mi
12:53 PM81 °FThunderstorms. Broken clouds.5 mph82%30.04 "Hg10 mi
11:53 AM86 °FThunderstorms. Scattered clouds.8 mph63%30.05 "Hg10 mi
10:53 AM86 °FPassing clouds.5 mph65%30.04 "Hg10 mi
9:53 AM86 °FScattered clouds.6 mph67%30.04 "Hg10 mi
8:53 AM83 °FScattered clouds.3 mph74%30.03 "Hg10 mi
7:53 AM77 °FScattered clouds.No wind90%30.03 "Hg10 mi
6:53 AM77 °FPassing clouds.No wind90%30.01 "Hg10 mi
5:53 AM77 °FClear.No wind90%29.99 "Hg10 mi
4:53 AM77 °FClear.No wind90%29.99 "Hg10 mi
3:53 AM78 °FClear.3 mph87%29.99 "Hg10 mi
2:53 AM78 °FPassing clouds.No wind87%30.00 "Hg10 mi
1:53 AM79 °FClear.No wind84%30.01 "Hg10 mi
12:53 AM79 °FClear.3 mph84%30.01 "Hg10 mi
11:53 PM
Fri, Sep 23
80 °FClear.No wind81%30.00 "Hg10 mi
10:53 PM80 °FClear.No wind79%30.01 "Hg10 mi
9:53 PM81 °FPassing clouds.5 mph79%30.01 "Hg10 mi
8:53 PM82 °FClear.No wind74%30.00 "Hg10 mi
7:53 PM81 °FClear.No wind74%29.98 "Hg10 mi
6:53 PM81 °FSunny.3 mph72%29.98 "Hg10 mi
5:53 PM82 °FScattered clouds.3 mph67%29.96 "Hg10 mi
4:53 PM85 °FScattered clouds.5 mph70%29.96 "Hg10 mi
Weather by CustomWeather, © 2016

See weather overviewHow to use our weather pages